This is the latest recevied weather packets stored in our database for station/object OE5RBO. If no packets are shown the sender has not sent any weather packets the latest 10 day(s).
| Time | Temp. | Humidity | Pressure | Rain* | Wind** | Luminosity | Snow |
|---|---|---|---|---|---|---|---|
| 1787639810 | 17.78° C | 78% | 1009.8 hPa | 0 mm | - | - | - |
| 1787639210 | 17.78° C | 79% | 1009.7 hPa | 0 mm | - | - | - |
| 1787638609 | 17.22° C | 80% | 1009.7 hPa | 0 mm | - | - | - |
| 1787637409 | 17.22° C | 82% | 1009.7 hPa | 0 mm | - | - | - |
| 1787636808 | 16.67° C | 82% | 1009.6 hPa | 0 mm | - | - | - |
| 1787636208 | 16.67° C | 82% | 1009.5 hPa | 0 mm | - | - | - |
| 1787635607 | 16.67° C | 83% | 1009.4 hPa | 0 mm | - | - | - |
| 1787635007 | 16.11° C | 83% | 1009.5 hPa | 0 mm | - | - | - |
| 1787634407 | 16.11° C | 84% | 1009.5 hPa | 0 mm | - | - | - |
| 1787633806 | 16.11° C | 83% | 1009.6 hPa | 0 mm | - | - | - |
| 1787632605 | 16.11° C | 84% | 1009.6 hPa | 0 mm | - | - | - |
| 1787632005 | 16.11° C | 84% | 1009.6 hPa | 0 mm | - | - | - |
| 1787631405 | 16.11° C | 84% | 1009.8 hPa | 0 mm | - | - | - |
| 1787630804 | 15.56° C | 85% | 1009.9 hPa | 0 mm | - | - | - |
| 1787630204 | 16.11° C | 82% | 1009.9 hPa | 0 mm | - | - | - |
| 1787627803 | 16.67° C | 80% | 1009.8 hPa | 0 mm | - | - | - |
| 1787627202 | 16.67° C | 79% | 1010 hPa | 0 mm | - | - | - |
| 1787626602 | 17.22° C | 79% | 1010.2 hPa | 0 mm | - | - | - |
| 1787626002 | 17.22° C | 78% | 1010.3 hPa | 0 mm | - | - | - |
| 1787625401 | 17.22° C | 78% | 1010 hPa | 0 mm | - | - | - |
| 1787624201 | 17.22° C | 77% | 1010.2 hPa | 0 mm | - | - | - |
| 1787623600 | 17.22° C | 77% | 1010.6 hPa | 0 mm | - | - | - |
| 1787623000 | 17.78° C | 77% | 1010.7 hPa | 0 mm | - | - | - |
| 1787622399 | 17.22° C | 77% | 1010.9 hPa | 0 mm | - | - | - |
| 1787621799 | 17.78° C | 77% | 1010.9 hPa | 0 mm | - | - | - |
* Rain since midnight (hover to see other rain measurements)
** Current wind speed in m/s (hover to see current wind gust speed)